SCP
0 0 0 0 0 0 0 0 0 0 0 0 0 0 0 0 0 0 0 0 0 0 0 0 0 0 0 0 0 0 0 0 0 0 0 0 0 0 0 1 1 1 1
0 0 0 0 0 0 0 0 0 0 0 0 0 0 0 0 0 0 0 0 0 0 0 0 0 0 0 0 0 0 0 0 0 0 0 0 0 0 0 1 1 1 1
0 0 0 0 0 0 0 0 0 0 0 0 0 0 0 0 0 0 0 0 0 0 0 0 0 0 0 0 0 0 0 0 0 0 0 0 0 0 0 0 1 1 1
0 0 0 0 0 0 0 0 0 0 0 0 0 0 0 0 0 0 0 0 0 0 0 0 0 0 0 0 0 0 0 0 0 0 0 0 0 0 0 0 0 1 1
0 0 0 0 0 0 0 0 0 0 0 0 0 0 0 0 0 0 0 0 0 0 0 0 0 0 0 0 0 0 0 0 0 0 0 0 0 0 0 0 0 0 0
0 0 0 0 0 0 0 0 0 0 0 0 0 0 0 0 0 0 0 0 0 0 0 0 0 0 0 0 0 0 0 0 0 0 0 0 0 0 0 0 0 0 0
0 0 0 0 0 0 0 0 0 0 0 0 0 0 0 0 0 0 0 0 0 0 0 0 0 0 0 0 0 0 0 0 0 0 0 0 0 0 0 0 0 0 0
0 0 0 0 0 0 0 0 0 0 0 0 0 0 0 0 0 0 0 0 0 0 0 0 0 0 0 0 0 0 0 0 0 0 0 0 0 0 0 0 0 0 0
0 0 0 0 0 0 0 0 0 0 0 0 0 0 0 0 0 0 0 0 0 0 0 0 0 0 0 0 0 0 0 0 0 0 0 0 0 0 0 0 0 0 0
0 0 0 0 0 0 0 0 0 0 0 0 0 0 0 0 0 0 0 0 0 0 0 0 0 0 0 0 0 0 0 0 0 0 0 0 0 0 0 0 0 0 0
0 0 0 0 0 0 0 0 0 0 0 0 0 0 0 0 0 0 0 0 0 0 0 0 0 0 0 0 0 0 0 0 0 0 0 0 0 0 0 0 0 0 0
0 0 0 0 0 0 0 0 0 0 0 0 0 0 0 0 0 0 0 0 0 0 0 0 0 0 0 0 0 0 0 0 0 0 0 0 0 0 0 0 0 0 0
0 0 0 0 0 0 0 0 0 0 0 0 0 0 0 0 0 0 0 0 0 0 0 0 0 0 0 0 0 0 0 0 0 0 0 0 0 0 0 0 0 0 0
0 0 0 0 0 0 0 0 0 0 0 0 0 0 0 0 0 0 0 0 0 0 0 0 0 0 0 0 0 0 0 0 0 0 0 0 0 0 0 0 0 0 0
0 0 0 0 0 0 0 0 0 0 0 0 0 0 0 0 0 0 0 0 0 0 0 0 0 0 0 0 0 0 0 0 0 0 0 0 0 0 0 0 0 0 0
0 0 0 0 0 0 0 0 0 0 0 0 0 0 0 0 0 0 0 0 0 0 0 0 0 0 0 0 0 0 0 0 0 0 0 0 0 0 0 0 0 0 0
0 0 0 0 0 0 0 0 0 0 0 0 0 0 0 0 0 0 0 0 0 0 0 0 0 0 0 0 0 0 0 0 0 0 0 0 0 0 0 0 0 0 0
0 0 0 0 0 0 0 0 0 0 0 0 0 0 0 0 0 0 0 0 0 0 0 0 0 0 0 0 0 0 0 0 0 0 0 0 0 0 0 0 0 0 0
0 0 0 0 0 0 0 0 0 0 0 0 0 0 0 0 0 0 0 0 0 0 0 0 0 0 0 0 0 0 0 0 0 0 0 0 0 0 0 0 0 0 0
0 0 0 0 0 0 0 0 0 0 0 0 0 0 0 0 0 0 0 0 0 0 0 0 0 0 0 0 0 0 0 0 0 0 0 0 0 0 0 0 0 0 0
0 0 0 0 0 0 0 0 0 0 0 0 0 0 0 0 0 0 0 0 0 0 0 0 0 0 0 0 0 0 0 0 0 0 0 0 0 0 0 0 0 0 0
0 0 0 0 0 0 0 0 0 0 0 0 0 0 0 0 0 0 0 0 0 0 0 0 0 0 0 0 0 0 0 0 0 0 0 0 0 0 0 0 0 0 0
0 0 0 0 0 0 0 0 0 0 0 0 0 0 0 0 0 0 0 0 0 0 0 0 0 0 0 0 0 0 0 0 0 0 0 0 0 0 0 0 0 0 0
0 0 0 0 0 0 0 0 0 0 0 0 0 0 0 0 0 0 0 0 0 0 0 0 0 0 0 0 0 0 0 0 0 0 0 0 0 0 0 0 0 0 0
0 0 0 0 0 0 0 0 0 0 0 0 0 0 0 0 0 0 0 0 0 0 0 0 0 0 0 0 0 0 0 0 0 0 0 0 0 0 0 0 0 0 0
0 0 0 0 0 0 0 0 0 0 0 0 0 0 0 0 0 0 0 0 0 0 0 0 0 0 0 0 0 0 0 0 0 0 0 0 0 0 0 0 0 0 0
Wind_Speed
2 1 2 2 3 3 3 3 4 4 4 4 4 4 4 3 2 1 1 1 1 2 2 2 2 2 2 2 2 2 2 3 3 2 1 2 3 3 4 4 4 5 6
2 1 1 2 2 3 3 4 4 4 4 4 4 4 4 3 3 2 2 2 1 2 2 2 2 2 2 2 2 2 3 3 3 3 2 2 3 4 4 5 4 4 4
2 1 1 2 2 3 3 3 4 3 4 4 4 4 4 3 3 2 2 2 2 2 2 2 2 2 2 2 2 2 2 2 2 3 2 2 2 3 4 4 4 3 4
2 1 1 1 2 2 2 3 3 3 3 4 4 4 3 3 3 2 2 2 2 2 1 1 2 2 3 3 2 2 2 2 2 2 2 2 2 3 4 4 3 3 3
3 2 2 2 1 1 2 3 3 3 4 4 4 4 4 3 2 2 2 2 2 2 2 1 1 2 3 2 2 2 2 2 2 2 2 2 2 3 4 3 3 3 2
3 3 3 2 1 1 2 2 3 3 4 4 4 4 5 4 6 4 2 1 2 2 3 2 2 1 2 2 2 3 4 4 3 3 2 3 3 3 3 3 3 3 3
4 3 2 2 2 2 2 2 2 3 3 4 4 4 5 6 7 5 3 1 2 2 2 2 2 2 2 1 2 2 2 4 6 5 4 5 5 5 5 5 5 4 3
3 3 3 2 2 2 2 2 3 2 3 3 3 4 4 6 8 6 3 2 2 2 2 2 1 2 2 1 0 1 1 2 3 4 5 5 5 5 6 5 5 3 2
3 4 4 3 3 2 2 3 3 2 3 3 3 4 4 5 7 5 3 1 2 3 3 2 2 2 3 2 0 1 1 2 2 3 4 5 6 6 6 4 5 4 2
5 5 4 4 3 3 4 3 2 2 3 3 3 3 3 4 6 5 2 1 1 2 3 3 4 3 4 2 0 1 2 2 2 1 1 1 3 4 7 6 6 5 3
4 3 3 4 4 4 3 3 2 2 2 3 4 4 4 4 5 5 1 1 0 1 2 3 3 5 5 4 2 1 3 2 1 1 1 1 1 2 3 3 4 5 5
3 3 3 3 3 2 3 3 3 2 2 3 3 4 3 4 4 4 2 1 1 0 2 2 3 6 6 5 3 2 3 2 1 1 1 1 1 2 2 3 3 3 3
2 2 3 3 2 2 2 3 2 2 2 3 2 3 4 3 3 5 4 3 2 1 2 4 6 6 6 4 4 4 2 1 1 1 2 2 2 2 2 2 2 2 2
1 2 2 2 3 3 2 2 2 2 2 2 2 3 3 3 3 2 2 2 2 2 2 4 6 5 3 4 4 2 1 1 1 2 2 2 1 1 2 2 2 2 2
1 1 2 2 2 3 2 2 3 3 3 2 2 2 2 4 5 5 2 2 2 2 2 2 2 3 3 3 3 2 2 1 1 1 2 2 2 2 2 1 2 2 2
1 1 1 1 2 2 2 3 3 3 3 3 3 2 2 5 6 5 5 4 3 1 1 2 2 3 3 3 3 3 2 2 2 2 2 2 2 3 2 2 2 3 3
1 0 1 1 1 2 1 1 3 4 3 3 4 4 4 5 5 4 4 3 2 1 1 2 3 3 4 3 3 3 3 3 2 2 3 3 3 3 3 3 3 3 3
1 2 2 1 1 1 1 1 1 2 3 4 5 5 6 5 5 4 3 2 2 2 1 3 4 4 4 4 4 3 4 3 2 3 3 3 3 3 4 4 5 5 5
2 2 1 1 1 1 1 2 2 2 2 3 4 6 7 5 4 5 3 2 2 3 3 3 3 4 4 4 4 4 4 4 4 3 3 4 4 4 4 5 5 7 6
3 5 4 2 2 2 3 3 3 3 3 4 4 5 5 5 5 5 3 3 3 3 4 4 4 4 4 4 4 4 4 4 4 4 4 4 4 4 5 6 5 5 6
3 4 7 5 3 3 3 3 3 3 3 4 4 6 8 4 4 5 4 3 3 4 4 4 4 5 4 4 4 4 5 4 4 4 4 4 4 4 5 5 5 5 5
3 3 3 3 3 3 3 3 3 3 4 4 3 5 8 5 4 4 4 5 4 4 4 4 5 5 5 5 5 5 5 5 5 5 5 5 5 5 5 5 5 5 6
4 4 4 3 3 4 4 4 3 3 3 3 4 4 4 4 4 4 4 4 4 4 4 4 5 5 5 5 5 5 5 6 6 7 7 6 6 6 6 6 7 7 7
4 4 3 3 3 3 3 3 3 3 3 3 3 3 3 3 3 4 4 4 4 4 4 4 4 6 8 6 5 4 5 6 7 6 9 8 8 7 6 7 7 9 8
3 3 3 2 2 2 2 2 2 2 3 3 3 3 3 3 3 3 3 3 4 4 5 5 4 5 7 8 7 7 9 11 10 8 8 7 9 9 8 9 8 8 8
3 3 2 1 1 1 2 2 2 2 2 2 2 2 2 3 3 3 3 4 4 4 5 5 6 7 8 7 8 11 12 13 13 13 9 7 8 8 9 8 10 9 9
Wind_Direction
245 285 333 319 319 331 339 329 326 331 340 346 342 343 347 345 338 339 305 289 269 273 264 241 246 231 221 221 209 207 200 181 205 230 216 193 181 186 179 180 187 191 196
235 268 315 316 332 347 340 330 334 338 341 347 351 352 352 353 352 354 329 325 290 275 273 257 253 237 225 222 205 212 209 192 187 212 211 194 198 191 180 180 185 189 193
217 231 325 330 336 337 333 333 340 342 342 347 354 352 347 346 346 341 333 318 302 285 270 255 254 229 226 230 217 215 214 204 187 194 211 193 192 178 171 177 178 182 197
193 196 259 286 297 308 322 338 340 340 342 342 344 341 337 337 340 337 347 334 324 316 289 255 235 212 217 218 218 218 209 196 186 189 198 184 180 175 167 174 178 185 192
182 202 232 246 265 304 323 332 336 342 343 339 344 343 339 334 331 330 328 337 336 335 333 315 274 243 231 209 202 198 190 185 182 189 190 182 180 174 184 178 179 169 182
189 213 228 234 254 286 301 319 334 338 340 345 345 341 340 336 336 338 337 357 355 351 343 332 315 315 307 293 269 214 189 186 190 190 197 194 199 192 182 177 167 164 191
200 218 223 225 242 271 293 319 320 319 331 336 333 337 332 327 335 339 345 27 5 350 340 331 333 347 349 332 308 292 235 221 207 194 198 205 198 193 180 183 184 177 184
202 214 219 217 238 265 289 295 297 302 308 313 318 324 328 335 348 354 9 34 14 352 347 336 327 327 331 342 325 333 289 267 240 218 211 216 213 199 190 187 177 149 102
208 218 221 214 223 243 262 272 274 286 298 301 305 319 326 326 342 353 19 25 3 350 346 348 335 326 327 1 64 298 301 298 285 253 226 222 214 200 180 157 160 161 171
220 222 220 211 212 229 245 255 258 258 274 298 308 308 307 311 331 347 14 51 358 337 339 341 345 333 327 333 231 227 262 275 288 314 295 252 211 193 191 188 180 177 165
218 213 217 219 220 229 244 251 257 268 290 305 308 307 306 301 318 336 10 107 279 320 329 328 324 333 329 322 300 238 246 252 240 234 260 266 209 194 199 197 192 184 181
196 204 225 236 241 235 239 263 267 267 286 298 307 312 307 304 309 312 320 286 220 248 294 302 306 318 322 322 308 279 287 280 207 202 222 241 231 218 205 194 193 196 195
187 224 247 261 260 255 241 259 274 265 259 278 285 293 300 303 306 306 307 308 306 259 279 295 308 316 322 323 308 297 301 290 213 213 228 239 231 218 190 175 167 160 146
194 250 268 278 283 281 267 254 252 259 255 264 268 274 285 297 295 294 300 307 314 311 312 318 325 329 324 306 310 314 294 246 230 228 236 243 223 192 192 179 173 168 160
202 291 299 290 286 291 282 256 243 242 216 221 246 249 262 282 275 251 223 242 247 267 319 339 344 342 339 332 325 309 294 280 260 251 235 236 232 219 214 190 168 166 182
92 341 318 314 312 308 309 317 292 263 287 271 269 263 268 269 285 279 254 249 260 277 28 332 321 319 312 310 311 310 297 270 254 240 235 230 230 227 225 212 191 188 200
109 347 339 343 339 336 338 333 326 331 334 326 319 314 301 317 318 304 288 288 308 357 357 305 299 298 296 293 290 285 281 273 261 242 238 233 230 228 222 221 212 208 214
61 37 35 359 347 345 342 334 337 343 345 340 334 329 324 319 327 333 340 18 357 8 296 289 289 288 286 285 283 280 278 279 265 249 246 242 233 227 226 223 216 214 215
61 41 27 13 7 3 3 10 13 13 3 345 349 351 345 336 353 5 34 41 340 331 324 310 302 298 294 289 283 279 275 270 264 253 246 241 236 230 236 234 226 221 214
46 48 57 42 27 26 26 29 26 25 22 19 15 359 358 25 27 17 22 9 346 335 331 323 317 313 308 303 300 296 288 279 273 263 258 253 244 235 236 235 231 226 221
52 44 52 52 41 38 38 37 36 39 38 34 22 17 28 36 26 17 13 4 349 336 331 327 325 326 325 320 315 312 307 299 288 279 271 261 251 247 244 237 232 230 228
69 61 55 55 48 46 45 42 41 39 32 28 14 16 28 38 30 23 16 8 4 355 347 346 345 343 339 334 329 325 321 318 317 309 294 281 266 254 249 244 240 232 228
73 69 60 50 49 48 49 41 41 40 34 25 22 23 26 26 21 17 10 1 355 353 352 355 354 352 352 351 352 352 348 339 326 317 307 294 282 268 254 247 242 239 234
74 72 67 56 52 49 45 38 33 34 34 30 26 23 19 15 10 6 360 354 353 354 356 354 353 351 352 351 345 341 336 327 325 318 311 301 290 279 268 258 249 242 237
76 75 72 68 64 58 49 41 33 28 26 26 24 16 5 1 356 350 344 342 341 341 341 339 336 334 335 337 338 336 332 326 322 319 309 301 296 286 276 267 258 251 244
83 83 83 82 73 59 52 41 26 19 14 10 6 358 351 347 341 338 336 335 330 325 324 321 320 320 319 321 323 321 321 322 322 317 308 298 296 291 286 276 266 257 249